| time (UTC) | temp C | wind direction | speed KPH | gust KPH | rain 1hr cm | rain 24hr cm | rain mn cm | humidity % | barometer mb |
| 20260507221006 | 23 | 91 | 3.2 | 17.7 | 0.00 | 0.00 | 0.00 | 32 | 1014.0 |
| 20260507220004 | 22 | 91 | 14.5 | 22.5 | 0.00 | 0.00 | 0.00 | 32 | 1014.1 |
| 20260507214955 | 22 | 91 | 17.7 | 25.7 | 0.00 | 0.00 | 0.00 | 31 | 1014.3 |
| 20260507213933 | 23 | 91 | 4.8 | 20.9 | 0.00 | 0.00 | 0.00 | 38 | 1014.4 |
| 20260507212935 | 22 | 91 | 9.7 | 24.1 | 0.00 | 0.00 | 0.00 | 39 | 1014.5 |
| 20260507211943 | 22 | 90 | 11.3 | 20.9 | 0.00 | 0.00 | 0.00 | 41 | 1014.6 |
| 20260507210948 | 22 | 87 | 9.7 | 17.7 | 0.00 | 0.00 | 0.00 | 39 | 1014.7 |
| 20260507205934 | 22 | 83 | 6.4 | 22.5 | 0.00 | 0.00 | 0.00 | 39 | 1014.8 |
| 20260507204937 | 21 | 82 | 11.3 | 27.4 | 0.00 | 0.00 | 0.00 | 43 | 1014.8 |
| 20260507203943 | 21 | 74 | 11.3 | 24.1 | 0.00 | 0.00 | 0.00 | 42 | 1015.0 |
| 20260507202949 | 21 | 79 | 12.9 | 20.9 | 0.00 | 0.00 | 0.00 | 42 | 1015.0 |
| 20260507201953 | 21 | 76 | 17.7 | 25.7 | 0.00 | 0.00 | 0.00 | 41 | 1015.1 |
| 20260507200936 | 21 | 69 | 19.3 | 25.7 | 0.00 | 0.00 | 0.00 | 40 | 1015.2 |
| 20260507195942 | 21 | 74 | 9.7 | 24.1 | 0.00 | 0.00 | 0.00 | 43 | 1015.4 |
| 20260507195004 | 20 | 63 | 12.9 | 20.9 | 0.00 | 0.00 | 0.00 | 45 | 1015.3 |
| 20260507193944 | 20 | 47 | 9.7 | 25.7 | 0.00 | 0.00 | 0.00 | 46 | 1015.3 |
| 20260507192935 | 20 | 54 | 1.6 | 20.9 | 0.00 | 0.00 | 0.00 | 51 | 1015.2 |
| 20260507192011 | 20 | 60 | 3.2 | 16.1 | 0.00 | 0.00 | 0.00 | 48 | 1015.3 |
| 20260507190947 | 20 | 60 | 11.3 | 20.9 | 0.00 | 0.00 | 0.00 | 50 | 1015.4 |
| 20260507185947 | 19 | 60 | 12.9 | 24.1 | 0.00 | 0.00 | 0.00 | 50 | 1015.5 |
| 20260507184947 | 19 | 57 | 4.8 | 22.5 | 0.00 | 0.00 | 0.00 | 51 | 1015.6 |
| 20260507184002 | 19 | 61 | 11.3 | 20.9 | 0.00 | 0.00 | 0.00 | 53 | 1015.6 |
| 20260507182944 | 19 | 52 | 9.7 | 19.3 | 0.00 | 0.00 | 0.00 | 53 | 1015.7 |
| 20260507181950 | 18 | 59 | 4.8 | 22.5 | 0.00 | 0.00 | 0.00 | 53 | 1015.8 |
| 20260507180934 | 18 | 63 | 6.4 | 19.3 | 0.00 | 0.00 | 0.00 | 53 | 1015.9 |
| 20260507175955 | 18 | 59 | 12.9 | 22.5 | 0.00 | 0.00 | 0.00 | 55 | 1016.0 |
| 20260507174938 | 18 | 75 | 8.0 | 20.9 | 0.00 | 0.00 | 0.00 | 54 | 1016.1 |
| 20260507173945 | 17 | 57 | 12.9 | 17.7 | 0.00 | 0.00 | 0.00 | 54 | 1016.1 |
| 20260507172948 | 17 | 49 | 4.8 | 19.3 | 0.00 | 0.00 | 0.00 | 55 | 1016.2 |
| 20260507172008 | 17 | 58 | 3.2 | 14.5 | 0.00 | 0.00 | 0.00 | 57 | 1016.3 |
| 20260507170933 | 17 | 65 | 14.5 | 20.9 | 0.00 | 0.00 | 0.00 | 57 | 1016.4 |
| 20260507165936 | 16 | 64 | 12.9 | 19.3 | 0.00 | 0.00 | 0.00 | 57 | 1016.4 |
| 20260507164942 | 16 | 42 | 12.9 | 22.5 | 0.00 | 0.00 | 0.00 | 57 | 1016.5 |
| 20260507163949 | 16 | 78 | 16.1 | 25.7 | 0.00 | 0.00 | 0.00 | 57 | 1016.5 |
| 20260507162951 | 16 | 65 | 14.5 | 20.9 | 0.00 | 0.00 | 0.00 | 58 | 1016.4 |
| 20260507161952 | 15 | 59 | 17.7 | 25.7 | 0.00 | 0.00 | 0.00 | 60 | 1016.4 |
| 20260507160936 | 15 | 15 | 16.1 | 20.9 | 0.00 | 0.00 | 0.00 | 60 | 1016.5 |
| 20260507155937 | 15 | 46 | 14.5 | 25.7 | 0.00 | 0.00 | 0.00 | 60 | 1016.6 |
| 20260507154952 | 15 | 83 | 14.5 | 24.1 | 0.00 | 0.00 | 0.00 | 62 | 1016.7 |
| 20260507153950 | 14 | 9 | 12.9 | 24.1 | 0.00 | 0.00 | 0.00 | 62 | 1016.6 |
| 20260507153011 | 13 | 360 | 12.9 | 29.0 | 0.00 | 0.00 | 0.00 | 63 | 1016.4 |
| 20260507151936 | 13 | 355 | 14.5 | 27.4 | 0.00 | 0.00 | 0.00 | 64 | 1016.4 |
| 20260507150958 | 13 | 56 | 14.5 | 27.4 | 0.00 | 0.00 | 0.00 | 64 | 1016.4 |
| 20260507150000 | 13 | 33 | 12.9 | 29.0 | 0.00 | 0.00 | 0.00 | 65 | 1016.3 |
| 20260507144942 | 13 | 46 | 12.9 | 22.5 | 0.00 | 0.00 | 0.00 | 64 | 1016.2 |
| 20260507143931 | 13 | 53 | 8.0 | 24.1 | 0.00 | 0.00 | 0.00 | 66 | 1016.2 |
| 20260507142957 | 13 | 14 | 6.4 | 11.3 | 0.00 | 0.00 | 0.00 | 69 | 1016.0 |
| 20260507141937 | 13 | 9 | 0.0 | 0.0 | 0.00 | 0.00 | 0.00 | 71 | 1015.9 |
| 20260507141001 | 12 | 9 | 4.8 | 11.3 | 0.00 | 0.00 | 0.00 | 73 | 1015.6 |
| 20260507135943 | 11 | 9 | 0.0 | 0.0 | 0.00 | 0.00 | 0.00 | 73 | 1015.6 |
| 20260507134933 | 11 | 9 | 0.0 | 0.0 | 0.00 | 0.00 | 0.00 | 73 | 1015.6 |
| 20260507133936 | 11 | 9 | 0.0 | 0.0 | 0.00 | 0.00 | 0.00 | 72 | 1015.5 |
| 20260507131938 | 11 | 9 | 0.0 | 0.0 | 0.00 | 0.00 | 0.00 | 73 | 1015.4 |
| 20260507131006 | 12 | 9 | 0.0 | 0.0 | 0.00 | 0.00 | 0.00 | 73 | 1015.4 |
| 20260507125943 | 12 | 9 | 0.0 | 0.0 | 0.00 | 0.00 | 0.00 | 71 | 1015.3 |
| 20260507124944 | 12 | 9 | 0.0 | 0.0 | 0.00 | 0.00 | 0.00 | 71 | 1015.4 |
| 20260507123942 | 12 | 9 | 0.0 | 8.0 | 0.00 | 0.00 | 0.00 | 70 | 1015.5 |
| 20260507122943 | 13 | 9 | 3.2 | 16.1 | 0.00 | 0.00 | 0.00 | 69 | 1015.5 |
| 20260507121939 | 13 | 350 | 6.4 | 19.3 | 0.00 | 0.00 | 0.00 | 69 | 1015.4 |
| 20260507120949 | 13 | 19 | 3.2 | 20.9 | 0.00 | 0.00 | 0.00 | 69 | 1015.5 |
| 20260507115932 | 13 | 360 | 8.0 | 19.3 | 0.00 | 0.00 | 0.00 | 68 | 1015.5 |
| 20260507114935 | 13 | 360 | 9.7 | 24.1 | 0.00 | 0.00 | 0.00 | 67 | 1015.6 |
| 20260507113937 | 13 | 26 | 14.5 | 24.1 | 0.00 | 0.00 | 0.00 | 65 | 1015.5 |
| 20260507111938 | 13 | 28 | 14.5 | 25.7 | 0.00 | 0.00 | 0.00 | 64 | 1015.4 |
| 20260507110940 | 14 | 43 | 11.3 | 27.4 | 0.00 | 0.00 | 0.00 | 63 | 1015.5 |
| 20260507105943 | 14 | 40 | 9.7 | 25.7 | 0.00 | 0.00 | 0.00 | 62 | 1015.3 |
| 20260507104945 | 14 | 41 | 11.3 | 27.4 | 0.00 | 0.00 | 0.00 | 62 | 1015.4 |
| 20260507103932 | 14 | 42 | 9.7 | 24.1 | 0.00 | 0.00 | 0.00 | 61 | 1015.3 |
| 20260507102936 | 15 | 33 | 16.1 | 25.7 | 0.00 | 0.00 | 0.00 | 60 | 1015.3 |
| 20260507101939 | 14 | 11 | 12.9 | 22.5 | 0.00 | 0.00 | 0.00 | 61 | 1015.4 |
| 20260507101002 | 14 | 22 | 9.7 | 17.7 | 0.00 | 0.00 | 0.00 | 61 | 1015.6 |
| 20260507095946 | 14 | 360 | 12.9 | 20.9 | 0.00 | 0.00 | 0.00 | 62 | 1015.6 |
| 20260507094949 | 14 | 19 | 4.8 | 14.5 | 0.00 | 0.00 | 0.00 | 62 | 1015.6 |
| 20260507093951 | 14 | 360 | 11.3 | 17.7 | 0.00 | 0.00 | 0.00 | 61 | 1015.5 |
| 20260507092950 | 15 | 19 | 4.8 | 19.3 | 0.00 | 0.00 | 0.00 | 60 | 1015.5 |
| 20260507091953 | 15 | 45 | 12.9 | 22.5 | 0.00 | 0.00 | 0.00 | 59 | 1015.5 |
| 20260507090936 | 14 | 10 | 9.7 | 19.3 | 0.00 | 0.00 | 0.00 | 58 | 1015.4 |
| 20260507085959 | 14 | 13 | 4.8 | 16.1 | 0.00 | 0.00 | 0.00 | 58 | 1015.3 |
| 20260507084940 | 14 | 43 | 0.0 | 0.0 | 0.00 | 0.00 | 0.00 | 59 | 1015.2 |
| 20260507083947 | 15 | 42 | 0.0 | 0.0 | 0.00 | 0.00 | 0.00 | 57 | 1015.0 |
| 20260507082935 | 15 | 344 | 0.0 | 0.0 | 0.00 | 0.00 | 0.00 | 56 | 1014.9 |
| 20260507081939 | 15 | 74 | 0.0 | 0.0 | 0.00 | 0.00 | 0.00 | 56 | 1014.9 |
| 20260507081002 | 15 | 74 | 0.0 | 6.4 | 0.00 | 0.00 | 0.00 | 54 | 1014.9 |
| 20260507075946 | 16 | 27 | 0.0 | 9.7 | 0.00 | 0.00 | 0.00 | 53 | 1014.8 |
| 20260507073949 | 16 | 23 | 9.7 | 22.5 | 0.00 | 0.00 | 0.00 | 53 | 1014.9 |
| 20260507072932 | 16 | 360 | 1.6 | 33.8 | 0.00 | 0.00 | 0.00 | 53 | 1014.8 |
| 20260507071938 | 16 | 19 | 6.4 | 22.5 | 0.00 | 0.00 | 0.00 | 53 | 1014.7 |
| 20260507070936 | 16 | 42 | 9.7 | 20.9 | 0.00 | 0.00 | 0.00 | 52 | 1014.6 |
| 20260507065952 | 16 | 47 | 14.5 | 24.1 | 0.00 | 0.00 | 0.00 | 52 | 1014.6 |
| 20260507064953 | 17 | 5 | 12.9 | 25.7 | 0.00 | 0.00 | 0.00 | 51 | 1014.6 |
| 20260507064015 | 17 | 30 | 14.5 | 27.4 | 0.00 | 0.00 | 0.00 | 51 | 1014.6 |
| 20260507062952 | 17 | 11 | 9.7 | 25.7 | 0.00 | 0.00 | 0.00 | 51 | 1014.5 |
| 20260507061953 | 17 | 24 | 16.1 | 29.0 | 0.00 | 0.00 | 0.00 | 50 | 1014.5 |
| 20260507060938 | 17 | 40 | 11.3 | 25.7 | 0.00 | 0.00 | 0.00 | 50 | 1014.5 |
| 20260507055941 | 17 | 30 | 14.5 | 22.5 | 0.00 | 0.00 | 0.00 | 50 | 1014.5 |
| 20260507054944 | 17 | 44 | 11.3 | 20.9 | 0.00 | 0.00 | 0.00 | 50 | 1014.5 |
| 20260507053946 | 17 | 32 | 12.9 | 27.4 | 0.00 | 0.00 | 0.00 | 49 | 1014.6 |
| 20260507053010 | 18 | 53 | 16.1 | 30.6 | 0.00 | 0.00 | 0.00 | 48 | 1014.5 |
| 20260507051956 | 18 | 22 | 12.9 | 19.3 | 0.00 | 0.00 | 0.00 | 48 | 1014.5 |
| 20260507050938 | 18 | 45 | 14.5 | 25.7 | 0.00 | 0.00 | 0.00 | 48 | 1014.5 |
| 20260507045939 | 18 | 28 | 12.9 | 25.7 | 0.00 | 0.00 | 0.00 | 47 | 1014.3 |
| 20260507044945 | 19 | 67 | 16.1 | 29.0 | 0.00 | 0.00 | 0.00 | 46 | 1014.4 |
| 20260507043935 | 19 | 40 | 14.5 | 30.6 | 0.00 | 0.00 | 0.00 | 46 | 1014.3 |
| 20260507042938 | 20 | 58 | 20.9 | 32.2 | 0.00 | 0.00 | 0.00 | 45 | 1014.4 |
| 20260507041941 | 20 | 37 | 16.1 | 32.2 | 0.00 | 0.00 | 0.00 | 44 | 1014.2 |
| 20260507040943 | 20 | 38 | 20.9 | 32.2 | 0.00 | 0.00 | 0.00 | 44 | 1014.1 |
| 20260507035933 | 20 | 40 | 17.7 | 29.0 | 0.00 | 0.00 | 0.00 | 44 | 1013.9 |
| 20260507035005 | 20 | 17 | 16.1 | 30.6 | 0.00 | 0.00 | 0.00 | 43 | 1013.9 |
| 20260507033942 | 20 | 40 | 14.5 | 22.5 | 0.00 | 0.00 | 0.00 | 44 | 1013.8 |
| 20260507032943 | 21 | 30 | 20.9 | 33.8 | 0.00 | 0.00 | 0.00 | 44 | 1013.5 |
| 20260507031944 | 21 | 61 | 16.1 | 25.7 | 0.00 | 0.00 | 0.00 | 44 | 1013.3 |
| 20260507031020 | 21 | 51 | 17.7 | 25.7 | 0.00 | 0.00 | 0.00 | 43 | 1013.2 |
| 20260507025934 | 21 | 79 | 16.1 | 33.8 | 0.00 | 0.00 | 0.00 | 43 | 1013.2 |
| 20260507024940 | 21 | 23 | 17.7 | 29.0 | 0.00 | 0.00 | 0.00 | 42 | 1012.6 |
| 20260507023944 | 22 | 36 | 16.1 | 32.2 | 0.00 | 0.00 | 0.00 | 43 | 1012.5 |
| 20260507022934 | 22 | 42 | 19.3 | 35.4 | 0.00 | 0.00 | 0.00 | 45 | 1012.4 |
| 20260507021937 | 22 | 40 | 19.3 | 32.2 | 0.00 | 0.00 | 0.00 | 45 | 1012.5 |
| 20260507021000 | 22 | 44 | 20.9 | 38.6 | 0.00 | 0.00 | 0.00 | 44 | 1012.3 |
| 20260507015945 | 22 | 45 | 14.5 | 27.4 | 0.00 | 0.00 | 0.00 | 46 | 1012.3 |
| 20260507014948 | 22 | 49 | 14.5 | 24.1 | 0.00 | 0.00 | 0.00 | 46 | 1012.3 |
| 20260507013958 | 22 | 46 | 16.1 | 25.7 | 0.00 | 0.00 | 0.00 | 48 | 1012.2 |
| 20260507012940 | 23 | 55 | 11.3 | 27.4 | 0.00 | 0.00 | 0.00 | 47 | 1012.2 |
| 20260507011943 | 23 | 54 | 8.0 | 17.7 | 0.00 | 0.00 | 0.00 | 47 | 1012.2 |
| 20260507010949 | 23 | 56 | 12.9 | 19.3 | 0.00 | 0.00 | 0.00 | 47 | 1012.2 |
| 20260507005934 | 23 | 58 | 14.5 | 19.3 | 0.00 | 0.00 | 0.00 | 47 | 1012.2 |
| 20260507004955 | 23 | 57 | 16.1 | 20.9 | 0.00 | 0.00 | 0.00 | 47 | 1012.2 |
| 20260507003935 | 23 | 60 | 11.3 | 19.3 | 0.00 | 0.00 | 0.00 | 47 | 1012.2 |
| 20260507002935 | 23 | 59 | 14.5 | 24.1 | 0.00 | 0.00 | 0.00 | 45 | 1012.2 |
| 20260507001951 | 23 | 59 | 16.1 | 27.4 | 0.00 | 0.00 | 0.00 | 44 | 1012.2 |
| 20260507000934 | 24 | 59 | 22.5 | 35.4 | 0.00 | 0.00 | 0.00 | 41 | 1012.3 |
| 20260506235953 | 24 | 52 | 17.7 | 37.0 | 0.00 | 0.00 | 0.00 | 41 | 1012.2 |
| 20260506234945 | 25 | 43 | 20.9 | 30.6 | 0.00 | 0.00 | 0.00 | 39 | 1012.1 |
| 20260506234006 | 25 | 31 | 19.3 | 27.4 | 0.00 | 0.00 | 0.00 | 41 | 1012.2 |
| 20260506232932 | 25 | 25 | 12.9 | 24.1 | 0.00 | 0.00 | 0.00 | 42 | 1012.1 |
| 20260506231935 | 25 | 22 | 14.5 | 29.0 | 0.00 | 0.00 | 0.00 | 42 | 1012.1 |
| 20260506230940 | 25 | 11 | 17.7 | 27.4 | 0.00 | 0.00 | 0.00 | 41 | 1012.1 |
| 20260506225942 | 25 | 5 | 14.5 | 22.5 | 0.00 | 0.00 | 0.00 | 45 | 1012.2 |
| 20260506225004 | 25 | 360 | 17.7 | 25.7 | 0.00 | 0.00 | 0.00 | 43 | 1012.3 |
| 20260506223949 | 25 | 355 | 12.9 | 20.9 | 0.00 | 0.00 | 0.00 | 46 | 1012.3 |
| 20260506222931 | 25 | 355 | 9.7 | 16.1 | 0.00 | 0.00 | 0.00 | 42 | 1012.3 |
| 20260506221937 | 25 | 355 | 3.2 | 22.5 | 0.00 | 0.00 | 0.00 | 47 | 1012.5 |